Tacoma Narrows, WA
on Thursday, November 29, 2012

Thursday
Previous Day Next Day
Daily Summary
 ActualAverageRecord
Temperature
Mean Temperature °F °F  
Max Temperature 54°F 46°F 55°F (2008)
Min Temperature 39°F 38°F 19°F (2006)
Degree Days
Heating Degree Days 18    
Moisture
Dew Point 42°F   
Average Humidity 79    
Maximum Humidity 97    
Minimum Humidity 64    
Precipitation
Precipitation 0.09 in in in ()
Wind
Wind Speed 2 mph   
Max Wind Speed 15 mph   
Max Gust Speed 22 mph   
Visibility 8 miles   
Events Rain   
Averages and records for this station are not official NWS values.
Key: T is trace of precipitation, MM is missing value
Source: NWS Daily Summary
Seasonal Weather Averages
Time(PST)TemperatureDew PointHumidity Pressure Visibility Wind DirectionWind SpeedGust SpeedPrecipitationEvents Conditions
12:22 AM 42.8°F 39.2°F 87% 29.70 in 2.0 miles Calm Calm - N/A   Mostly Cloudy
12:31 AM 42.8°F 41.0°F 93% 29.70 in 6.0 miles Calm Calm - N/A   Scattered Clouds
12:39 AM 39.2°F 37.4°F 93% 29.69 in 1.8 miles Calm Calm - N/A   Scattered Clouds
12:48 AM 41.0°F 39.2°F 93% 29.69 in 3.0 miles Calm Calm - N/A   Partly Cloudy
12:53 AM 42.1°F 39.0°F 89% 29.70 in 7.0 miles Calm Calm - N/A   Partly Cloudy
1:53 AM 43.0°F 41.0°F 93% 29.68 in 3.0 miles Calm Calm - 0.01 in   Overcast
2:53 AM 43.0°F 42.1°F 97% 29.66 in 6.0 miles Calm Calm - N/A   Overcast
3:05 AM 44.6°F 42.8°F 93% 29.65 in 2.5 miles Calm Calm - N/A   Overcast
3:13 AM 44.6°F 42.8°F 93% 29.65 in 5.0 miles Calm Calm - N/A   Overcast
3:53 AM 45.0°F 42.1°F 90% 29.62 in 7.0 miles NE 4.6 mph - 0.00 in Rain Light Rain
4:53 AM 46.0°F 41.0°F 83% 29.59 in 10.0 miles NE 4.6 mph - 0.00 in   Mostly Cloudy
5:53 AM 50.0°F 39.9°F 68% 29.56 in 10.0 miles Calm Calm - N/A   Overcast
6:53 AM 50.0°F 41.0°F 71% 29.54 in 10.0 miles Calm Calm - 0.01 in Rain Light Rain
7:53 AM 51.1°F 42.1°F 71% 29.53 in 10.0 miles Calm Calm - 0.01 in   Overcast
8:53 AM 48.0°F 44.1°F 86% 29.59 in 9.0 miles WSW 6.9 mph - 0.01 in Rain Light Rain
9:53 AM 48.0°F 44.1°F 86% 29.60 in 10.0 miles South 3.5 mph - 0.03 in Rain Light Rain
10:53 AM 52.0°F 46.0°F 80% 29.61 in 10.0 miles South 10.4 mph - 0.00 in   Overcast
11:53 AM 54.0°F 44.1°F 69% 29.61 in 10.0 miles South 15.0 mph 20.7 mph N/A   Overcast
12:53 PM 52.0°F 45.0°F 77% 29.59 in 10.0 miles South 8.1 mph - 0.00 in   Overcast
1:53 PM 53.1°F 45.0°F 74% 29.58 in 10.0 miles SSW 11.5 mph 17.3 mph N/A   Mostly Cloudy
2:53 PM 54.0°F 43.0°F 66% 29.57 in 10.0 miles South 11.5 mph 21.9 mph N/A   Mostly Cloudy
3:53 PM 53.1°F 43.0°F 69% 29.56 in 10.0 miles South 9.2 mph - N/A   Scattered Clouds
4:53 PM 54.0°F 42.1°F 64% 29.54 in 10.0 miles South 10.4 mph - N/A   Mostly Cloudy
5:53 PM 54.0°F 42.1°F 64% 29.54 in 10.0 miles SE 3.5 mph - 0.00 in   Overcast
6:53 PM 53.1°F 42.1°F 66% 29.52 in 10.0 miles South 4.6 mph - N/A   Overcast
7:53 PM 52.0°F 42.1°F 69% 29.50 in 10.0 miles Calm Calm - N/A   Partly Cloudy
8:53 PM 51.1°F 42.1°F 71% 29.51 in 10.0 miles South 3.5 mph - N/A   Overcast
9:53 PM 52.0°F 41.0°F 66% 29.48 in 10.0 miles SE 4.6 mph - N/A   Scattered Clouds
10:53 PM 51.1°F 41.0°F 68% 29.46 in 10.0 miles Calm Calm - N/A   Mostly Cloudy
11:53 PM 48.9°F 42.1°F 77% 29.45 in 10.0 miles Calm Calm - 0.02 in Rain Light Rain
Moon Phase
Nov. 29 Dec. 06 Dec. 13 Dec. 20 Dec. 28
Sunrise:07:34 AM (PST) Moon Rise:05:30 PM (PST)11/29
Sunset:04:22 PM (PST) Moon Set:08:26 AM (PST)11/29

Copyright © 2014 The Weather Underground, Inc.